TimeCDT,TemperatureF,Dew PointF,Humidity,Sea Level PressureIn,VisibilityMPH,Wind Direction,Wind SpeedMPH,Gust SpeedMPH,PrecipitationIn,Events,Conditions,WindDirDegrees,DateUTC
12:53 AM,43.0,37.9,82,29.99,10.0,South,5.8,-,N/A,,Partly Cloudy,190,2013-10-17 05:53:00
1:53 AM,44.1,39.0,82,29.98,10.0,South,5.8,-,N/A,,Clear,190,2013-10-17 06:53:00
2:53 AM,44.1,39.9,85,29.96,10.0,South,5.8,-,N/A,,Clear,190,2013-10-17 07:53:00
3:53 AM,44.1,39.9,85,29.94,10.0,SSW,5.8,-,N/A,,Clear,200,2013-10-17 08:53:00
4:53 AM,43.0,39.0,86,29.94,10.0,South,5.8,-,N/A,,Clear,180,2013-10-17 09:53:00
5:53 AM,42.1,39.0,89,29.93,10.0,South,5.8,-,N/A,,Clear,190,2013-10-17 10:53:00
6:53 AM,39.9,37.9,93,29.93,10.0,South,6.9,-,N/A,,Clear,190,2013-10-17 11:53:00
7:44 AM,39.2,37.4,93,29.91,2.5,SSW,6.9,-,N/A,,Scattered Clouds,200,2013-10-17 12:44:00
7:47 AM,39.2,37.4,93,29.91,1.5,SSW,6.9,-,N/A,,Mostly Cloudy,200,2013-10-17 12:47:00
7:53 AM,39.0,37.9,96,29.94,0.8,SSW,6.9,-,N/A,,Mist,200,2013-10-17 12:53:00
8:24 AM,39.2,39.2,100,29.92,2.0,SSW,6.9,-,N/A,,Mostly Cloudy,200,2013-10-17 13:24:00
8:31 AM,41.0,39.2,93,29.92,5.0,SSW,5.8,-,N/A,,Scattered Clouds,210,2013-10-17 13:31:00
8:53 AM,43.0,41.0,93,29.94,10.0,SW,6.9,-,N/A,,Clear,230,2013-10-17 13:53:00
9:53 AM,48.0,41.0,77,29.94,10.0,SW,9.2,-,N/A,,Clear,230,2013-10-17 14:53:00
10:53 AM,53.1,42.1,66,29.94,10.0,SW,8.1,-,N/A,,Clear,220,2013-10-17 15:53:00
11:53 AM,57.0,41.0,55,29.92,10.0,SW,10.4,-,N/A,,Clear,230,2013-10-17 16:53:00
12:53 PM,60.1,39.0,46,29.91,10.0,West,8.1,18.4,N/A,,Clear,260,2013-10-17 17:53:00
1:53 PM,61.0,36.0,39,29.88,10.0,WSW,13.8,18.4,N/A,,Clear,240,2013-10-17 18:53:00
2:53 PM,62.1,35.1,37,29.87,10.0,WSW,13.8,20.7,N/A,,Clear,250,2013-10-17 19:53:00
3:53 PM,61.0,35.1,38,29.86,10.0,West,13.8,-,N/A,,Clear,260,2013-10-17 20:53:00
4:53 PM,63.0,35.1,35,29.86,10.0,West,13.8,20.7,N/A,,Partly Cloudy,280,2013-10-17 21:53:00
5:53 PM,59.0,35.1,41,29.88,10.0,West,9.2,-,N/A,,Clear,280,2013-10-17 22:53:00
6:53 PM,52.0,34.0,50,29.91,10.0,West,5.8,-,N/A,,Clear,280,2013-10-17 23:53:00
7:53 PM,50.0,36.0,59,29.92,10.0,WNW,6.9,-,N/A,,Clear,290,2013-10-18 00:53:00
8:53 PM,50.0,39.9,68,29.94,10.0,WNW,11.5,-,N/A,,Clear,300,2013-10-18 01:53:00
9:53 PM,46.9,39.9,77,29.97,10.0,WNW,10.4,-,N/A,,Clear,300,2013-10-18 02:53:00
10:53 PM,45.0,39.9,82,29.98,10.0,WNW,9.2,-,N/A,,Partly Cloudy,290,2013-10-18 03:53:00
11:08 PM,44.6,39.2,81,29.97,10.0,WNW,9.2,-,N/A,,Mostly Cloudy,290,2013-10-18 04:08:00
11:53 PM,46.9,39.0,74,29.99,10.0,NW,11.5,-,N/A,,Mostly Cloudy,310,2013-10-18 04:53:00